Weather History for KHQZ - August, 2013

Change the Weather History Date:

Monday, August 5, 2013

  Actual Average (KDFW) Record (KDFW)
Temperature  
Mean Temperature 88 °F 86 °F  
Max Temperature 100 °F 97 °F 107 °F (2011)
Min Temperature 77 °F 76 °F 64 °F (1948)
Degree Days  
Heating Degree Days 0 0  
Month to date heating degree days 0  
Since 1 June heating degree days 0  
Since 1 July heating degree days 0  
Cooling Degree Days 24 21  
Month to date cooling degree days 105  
Year to date cooling degree days 1649  
Since 1 June cooling degree days 1227  
Growing Degree Days 38 (Base 50)    
Moisture  
Dew Point 64 °F    
Average Humidity 48    
Maximum Humidity 76    
Minimum Humidity 26    
Precipitation  
Precipitation 0.00 in 0.05 in 1.81 in (1930)
Month to date precipitation 0.26  
Year to date precipitation 22.46  
Sea Level Pressure  
Sea Level Pressure 29.95 in    
Wind  
Wind Speed 6 mph (South)    
Max Wind Speed 13 mph    
Max Gust Speed 18 mph    
Visibility 10 miles    
Events      
T = Trace of Precipitation, MM = Missing Value Source: NWS Daily Summary

Daily Weather History Graph

Daily Weather History Graph

Search for Another Location

Airport or City:

Trip Planner

Search our weather history database for the weather conditions in past years. The results will help you decide how hot, cold, wet, or windy it might be!

Date:

Astronomy

Aug. 05, 2013 Rise Set
Actual Time 6:42 AM CDT 8:20 PM CDT
Civil Twilight 6:16 AM CDT 8:47 PM CDT
Nautical Twilight 5:44 AM CDT 9:19 PM CDT
Astronomical Twilight 5:10 AM CDT 9:52 PM CDT
Moon 5:38 AM CDT (8/5) 7:24 PM CDT (8/5)
Length of Visible Light 14h 30m
Length of Day
13h 37m
Waning Crescent, 1% of the Moon is Illuminated
Aug 5
Waning Crescent
Aug 6
New
Aug 14
First Quarter
Aug 20
Full
Aug 28
Last Quarter

Hourly Weather History & Observations

Time (CDT) Temp. Heat Index Dew Point Humidity Pressure Visibility Wind Dir Wind Speed Gust Speed Precip Events Conditions
12:15 AM 82.4 °F 85.0 °F 67.1 °F 60% 29.99 in 10.0 mi Calm Calm - N/A   Clear
12:35 AM 81.7 °F 84.2 °F 67.1 °F 61% 29.99 in 10.0 mi Calm Calm - N/A   Clear
12:55 AM 80.4 °F 83.0 °F 67.5 °F 65% 29.99 in 10.0 mi SSE 3.5 mph - N/A   Clear
1:15 AM 79.9 °F - 68.4 °F 68% 29.98 in 10.0 mi SSE 5.8 mph - N/A   Clear
1:35 AM 81.3 °F 84.5 °F 68.9 °F 66% 29.97 in 10.0 mi SSE 6.9 mph - N/A   Clear
1:55 AM 82.4 °F 85.8 °F 68.9 °F 64% 29.97 in 10.0 mi SSE 9.2 mph - N/A   Clear
2:15 AM 82.0 °F 85.3 °F 68.9 °F 64% 29.97 in 10.0 mi South 8.1 mph - N/A   Clear
2:35 AM 81.5 °F 84.8 °F 69.1 °F 66% 29.98 in 10.0 mi SSE 6.9 mph - N/A   Clear
2:55 AM 81.7 °F 85.1 °F 69.3 °F 66% 29.98 in 10.0 mi SSE 8.1 mph - N/A   Clear
3:15 AM 81.9 °F 85.4 °F 69.4 °F 66% 29.99 in 10.0 mi SSE 6.9 mph - N/A   Clear
3:35 AM 81.5 °F 84.9 °F 69.6 °F 67% 29.99 in 10.0 mi SSE 6.9 mph - N/A   Clear
3:55 AM 81.1 °F 84.5 °F 69.8 °F 68% 29.99 in 10.0 mi South 8.1 mph - N/A   Clear
4:15 AM 80.6 °F 83.9 °F 70.2 °F 70% 29.98 in 10.0 mi South 6.9 mph - N/A   Clear
4:35 AM 80.4 °F 83.8 °F 70.2 °F 71% 29.98 in 10.0 mi South 6.9 mph - N/A   Clear
4:55 AM 79.7 °F - 70.2 °F 73% 29.98 in 10.0 mi South 5.8 mph - N/A   Clear
5:15 AM 79.2 °F - 70.2 °F 74% 29.98 in 10.0 mi South 6.9 mph - N/A   Clear
5:35 AM 78.3 °F - 70.2 °F 76% 29.99 in 10.0 mi South 4.6 mph - N/A   Clear
5:55 AM 78.1 °F - 70.0 °F 76% 29.99 in 10.0 mi South 6.9 mph - N/A   Clear
6:15 AM 78.6 °F - 69.4 °F 73% 29.99 in 10.0 mi South 8.1 mph - N/A   Clear
6:35 AM 78.8 °F - 68.4 °F 70% 29.99 in 10.0 mi South 6.9 mph - N/A   Clear
6:55 AM 77.9 °F - 68.2 °F 72% 30.00 in 10.0 mi South 4.6 mph - N/A   Clear
7:15 AM 78.3 °F - 68.4 °F 71% 30.00 in 10.0 mi South 5.8 mph - N/A   Clear
7:35 AM 79.3 °F - 68.4 °F 69% 30.00 in 10.0 mi South 5.8 mph - N/A   Clear
7:55 AM 80.4 °F 83.2 °F 68.5 °F 67% 30.01 in 10.0 mi South 6.9 mph - N/A   Clear
8:15 AM 81.5 °F 84.6 °F 68.5 °F 65% 30.01 in 10.0 mi South 9.2 mph - N/A   Clear
8:35 AM 82.8 °F 86.0 °F 68.7 °F 62% 30.02 in 10.0 mi South 8.1 mph - N/A   Clear
8:55 AM 83.8 °F 86.7 °F 67.6 °F 58% 30.02 in 10.0 mi SSW 12.7 mph 16.1 mph N/A   Clear
9:15 AM 84.4 °F 86.8 °F 66.7 °F 55% 30.02 in 10.0 mi SSW 9.2 mph - N/A   Clear
9:35 AM 86.0 °F 88.2 °F 65.8 °F 51% 30.02 in 10.0 mi SSW 9.2 mph - N/A   Clear
9:55 AM 87.1 °F 89.2 °F 65.7 °F 49% 30.02 in 10.0 mi South 10.4 mph - N/A   Clear
10:15 AM 88.2 °F 89.9 °F 64.8 °F 46% 30.02 in 10.0 mi SSW 8.1 mph - N/A   Clear
10:35 AM 89.6 °F 90.1 °F 62.6 °F 40% 30.02 in 10.0 mi SW 9.2 mph - N/A   Clear
10:55 AM 90.5 °F 91.1 °F 62.6 °F 39% 30.01 in 10.0 mi SSW 8.1 mph - N/A   Clear
11:15 AM 91.9 °F 92.2 °F 61.7 °F 36% 30.01 in 10.0 mi South 11.5 mph - N/A   Clear
11:35 AM 92.8 °F 92.8 °F 60.3 °F 34% 30.00 in 10.0 mi SW 11.5 mph 16.1 mph N/A   Clear
11:55 AM 94.1 °F 93.9 °F 60.3 °F 32% 30.00 in 10.0 mi SSW 10.4 mph - N/A   Clear
12:15 PM 94.6 °F 94.7 °F 60.3 °F 32% 29.99 in 10.0 mi SSW 12.7 mph 18.4 mph N/A   Clear
12:35 PM 95.5 °F 95.6 °F 60.1 °F 31% 29.99 in 10.0 mi SW 12.7 mph - N/A   Clear
12:55 PM 96.1 °F 96.0 °F 59.9 °F 30% 29.97 in 10.0 mi WSW 11.5 mph - N/A   Clear
1:15 PM 96.4 °F 96.5 °F 60.3 °F 30% 29.97 in 10.0 mi South 11.5 mph - N/A   Clear
1:35 PM 96.6 °F 96.8 °F 60.1 °F 30% 29.96 in 10.0 mi South 9.2 mph - N/A   Clear
1:55 PM 97.5 °F 97.3 °F 59.7 °F 28% 29.95 in 10.0 mi SW 5.8 mph 16.1 mph N/A   Clear
2:15 PM 98.4 °F 99.2 °F 60.6 °F 29% 29.95 in 10.0 mi South 12.7 mph - N/A   Clear
2:35 PM 98.4 °F 98.7 °F 60.3 °F 28% 29.94 in 10.0 mi SSW 3.5 mph 17.3 mph N/A   Clear
2:55 PM 99.1 °F 99.3 °F 59.7 °F 27% 29.93 in 7.0 mi South 10.4 mph - N/A   Clear
3:15 PM 99.7 °F 100.1 °F 60.1 °F 27% 29.93 in 10.0 mi SSE 8.1 mph - N/A   Clear
3:35 PM 99.9 °F 100.4 °F 60.3 °F 27% 29.92 in 5.0 mi SSW 12.7 mph 17.3 mph N/A   Clear
3:55 PM 99.7 °F 100.1 °F 60.4 °F 27% 29.91 in 10.0 mi South 8.1 mph - N/A   Clear
4:15 PM 100.4 °F 100.7 °F 59.5 °F 26% 29.90 in 10.0 mi South 5.8 mph - N/A   Clear
4:35 PM 100.4 °F 100.7 °F 59.9 °F 26% 29.90 in 10.0 mi SSW 8.1 mph - N/A   Clear
4:55 PM 100.0 °F 100.2 °F 59.7 °F 26% 29.89 in 10.0 mi South 4.6 mph - N/A   Clear
5:15 PM 99.9 °F 99.9 °F 59.5 °F 26% 29.88 in 10.0 mi South 11.5 mph 16.1 mph N/A   Clear
5:35 PM 100.0 °F 100.2 °F 59.7 °F 26% 29.87 in 10.0 mi South 9.2 mph - N/A   Clear
5:55 PM 99.7 °F 99.6 °F 59.0 °F 26% 29.87 in 10.0 mi SSE 9.2 mph 16.1 mph N/A   Clear
6:15 PM 99.0 °F 99.0 °F 59.5 °F 27% 29.87 in 10.0 mi South 11.5 mph - N/A   Clear
6:35 PM 98.6 °F 98.9 °F 59.9 °F 28% 29.86 in 10.0 mi SSE 10.4 mph - N/A   Clear
6:55 PM 97.7 °F 97.6 °F 59.2 °F 28% 29.86 in 10.0 mi SSE 9.2 mph - N/A   Clear
7:15 PM 97.0 °F 96.5 °F 58.6 °F 28% 29.86 in 10.0 mi South 10.4 mph - N/A   Clear
7:35 PM 95.9 °F 95.3 °F 58.5 °F 29% 29.86 in 10.0 mi South 10.4 mph - N/A   Clear
7:55 PM 95.0 °F 93.7 °F 57.6 °F 28% 29.86 in 10.0 mi South 8.1 mph - N/A   Clear
8:15 PM 92.3 °F 91.0 °F 57.7 °F 31% 29.86 in 10.0 mi South 8.1 mph - N/A   Clear
8:35 PM 89.6 °F 88.6 °F 58.6 °F 35% 29.86 in 10.0 mi South 5.8 mph - N/A   Clear
8:55 PM 86.7 °F 86.5 °F 60.4 °F 41% 29.86 in 10.0 mi South 6.9 mph - N/A   Clear
9:15 PM 85.3 °F 85.2 °F 60.4 °F 43% 29.87 in 10.0 mi South 5.8 mph - N/A   Clear
9:35 PM 85.1 °F 85.2 °F 61.0 °F 44% 29.88 in 10.0 mi South 4.6 mph - N/A   Clear
9:55 PM 83.7 °F 83.9 °F 61.0 °F 46% 29.88 in 10.0 mi South 3.5 mph - N/A   Clear
10:15 PM 82.8 °F 83.3 °F 61.3 °F 48% 29.89 in 10.0 mi SSE 4.6 mph - N/A   Clear
10:35 PM 82.8 °F 83.3 °F 61.2 °F 48% 29.89 in 10.0 mi SSE 3.5 mph - N/A   Clear
10:55 PM 82.0 °F 83.0 °F 62.1 °F 51% 29.89 in 10.0 mi South 5.8 mph - N/A   Clear
11:15 PM 80.6 °F 81.8 °F 62.8 °F 54% 29.89 in 10.0 mi SSE 6.9 mph - N/A   Clear
11:35 PM 79.9 °F - 63.5 °F 57% 29.89 in 10.0 mi SE 3.5 mph - N/A   Clear
11:55 PM 80.1 °F 81.5 °F 63.0 °F 56% 29.89 in 10.0 mi SSE 4.6 mph - N/A   Clear